Doha, Qatar

10:22 AM +03 on March 25, 2017 (GMT +0300)
Doha International

Weather History for OTBD - May, 2014

Change the Weather History Date:

Saturday, May 10, 2014

  Actual Average Record
Temperature  
Mean Temperature 90 °F -  
Max Temperature 101 °F 103 °F 108 °F (2015)
Min Temperature 80 °F 79 °F 71 °F (2005)
Cooling Degree Days 26    
Growing Degree Days 40 (Base 50)    
Moisture  
Dew Point 58 °F    
Average Humidity 31    
Maximum Humidity 52    
Minimum Humidity 13    
Precipitation  
Precipitation 0.00 in 0.00 in - ()
Sea Level Pressure  
Sea Level Pressure 29.69 in    
Wind  
Wind Speed 7 mph ()    
Max Wind Speed 16 mph    
Max Gust Speed -    
Visibility 4.5 miles    
Events      
Averages and records for this station are not official NWS values.
T = Trace of Precipitation, MM = Missing Value Source: Averaged Metar Reports

Daily Weather History Graph

Daily Weather History Graph

Search for Another Location

Airport or City:

Trip Planner

Search our weather history database for the weather conditions in past years. The results will help you decide how hot, cold, wet, or windy it might be!

Date:

Astronomy

May. 10, 2014 Rise Set
Actual Time 4:51 AM +03 6:08 PM +03
Civil Twilight 4:27 AM +03 6:33 PM +03
Nautical Twilight 3:58 AM +03 7:02 PM +03
Astronomical Twilight 3:28 AM +03 7:32 PM +03
Moon 2:07 PM +03 (5/10) 1:43 AM +03 (5/10)
Length of Visible Light 14h 05m
Length of Day
13h 16m
Waxing Gibbous, 79% of the Moon is Illuminated
May 10
Waxing Gibbous
May 14
Full
May 21
Last Quarter
May 28
New
Jun 5
First Quarter

Hourly Weather History & Observations

Time (+03) Temp. Heat Index Dew Point Humidity Pressure Visibility Wind Dir Wind Speed Gust Speed Precip Events Conditions
12:00 AM 86 °F - 60 °F 31% 29.72 in 6 mi SW 3.5 mph - -  
12:00 AM 86.0 °F 86.1 °F 60.8 °F 43% 29.71 in - SW 3.5 mph - N/A   Clear
12:30 AM 86.0 °F 86.1 °F 60.8 °F 43% 29.71 in - WSW 3.5 mph - N/A   Clear
1:00 AM 86.0 °F 86.1 °F 60.8 °F 43% 29.71 in - WSW 3.5 mph - N/A   Clear
1:30 AM 84.2 °F 85.0 °F 62.6 °F 48% 29.68 in - Calm Calm - N/A   Clear
2:00 AM 87.8 °F 85.7 °F 53.6 °F 31% 29.68 in - NW 5.8 mph - N/A   Clear
2:30 AM 87.8 °F 86.1 °F 55.4 °F 33% 29.68 in - WNW 3.5 mph - N/A   Clear
3:00 AM 85 °F - 59 °F 31% 29.71 in 7 mi West 3.5 mph - -   Clear
3:00 AM 86.0 °F 85.4 °F 59.0 °F 40% 29.68 in - West 3.5 mph - N/A   Unknown
3:30 AM 86.0 °F 85.4 °F 59.0 °F 40% 29.68 in - NW 3.5 mph - N/A   Clear
4:00 AM 84.2 °F 84.4 °F 60.8 °F 45% 29.68 in - Variable 2.3 mph - N/A   Clear
4:30 AM 84.2 °F 84.4 °F 60.8 °F 45% 29.68 in - WSW 3.5 mph - N/A   Clear
5:00 AM 82.4 °F 82.5 °F 59.0 °F 45% 29.68 in - SW 3.5 mph - N/A   Clear
5:30 AM 82.4 °F 82.5 °F 59.0 °F 45% 29.68 in - SW 3.5 mph - N/A   Clear
6:00 AM 83 °F - 60 °F 35% 29.70 in 6 mi SSW 3.5 mph - -   Scattered Clouds
6:00 AM 82.4 °F 82.9 °F 60.8 °F 48% 29.68 in - SSW 3.5 mph - N/A   Clear
6:30 AM 84.2 °F 85.6 °F 64.4 °F 51% 29.71 in - SW 5.8 mph - N/A   Clear
7:00 AM 86.0 °F 86.6 °F 62.6 °F 45% 29.71 in 4.3 mi SW 5.8 mph - N/A   Unknown
8:00 AM 87.8 °F 91.4 °F 68.0 °F 52% 29.74 in 5.0 mi West 9.2 mph - N/A   Unknown
9:00 AM 93 °F - 66 °F 32% 29.75 in 5 mi NW 11.5 mph - -   Widespread Dust
9:00 AM 93.2 °F 96.2 °F 66.2 °F 41% 29.74 in 5.0 mi NW 11.5 mph - N/A   Unknown
10:00 AM 98.6 °F 100.0 °F 62.6 °F 30% 29.74 in 4.3 mi NW 11.5 mph - N/A   Unknown
10:30 AM 98.6 °F 97.6 °F 57.2 °F 25% 29.71 in 4.3 mi NNW 13.8 mph - N/A   Unknown
11:00 AM 100.4 °F 99.7 °F 57.2 °F 24% 29.71 in 4.3 mi NNW 15.0 mph - N/A   Unknown
12:00 PM 100 °F - 61 °F 19% 29.71 in 4 mi NW 16.1 mph - -   Widespread Dust
12:00 PM 100.4 °F 99.7 °F 57.2 °F 24% 29.71 in 3.7 mi NW 16.1 mph - N/A   Unknown
1:00 PM 100.4 °F 101.3 °F 60.8 °F 27% 29.68 in 3.1 mi NW 15.0 mph - N/A   Unknown
1:08 PM 100.4 °F 101.3 °F 60.8 °F 27% 29.68 in 3.1 mi NW 15.0 mph - N/A   Unknown
1:30 PM 100.4 °F 100.2 °F 59.0 °F 25% 29.68 in 2.8 mi NNW 13.8 mph - N/A   Unknown
2:00 PM 100.4 °F 100.2 °F 59.0 °F 25% 29.65 in 2.8 mi NW 11.5 mph - N/A   Unknown
2:30 PM 100.4 °F 99.7 °F 57.2 °F 24% 29.65 in 3.1 mi NNW 16.1 mph - N/A   Unknown
3:00 PM 101 °F - 57 °F 15% 29.66 in 3 mi NNW 15.0 mph - -   Widespread Dust
3:00 PM 100.4 °F 99.7 °F 57.2 °F 24% 29.65 in 3.1 mi NNW 15.0 mph - N/A   Unknown
3:30 PM 100.4 °F 99.7 °F 57.2 °F 24% 29.65 in 4.3 mi North 15.0 mph - N/A   Unknown
4:00 PM 100.4 °F 98.8 °F 55.4 °F 22% 29.65 in - NNW 13.8 mph - N/A   Unknown
4:30 PM 98.6 °F 97.2 °F 55.4 °F 24% 29.65 in 5.0 mi NW 12.7 mph - N/A   Unknown
5:00 PM 98.6 °F 97.2 °F 55.4 °F 24% 29.65 in 5.0 mi NNW 15.0 mph - N/A   Unknown
5:30 PM 96.8 °F 95.1 °F 55.4 °F 25% 29.65 in 5.0 mi NW 11.5 mph - N/A   Unknown
6:00 PM 97 °F - 52 °F 13% 29.67 in 5 mi NNW 13.8 mph - -   Widespread Dust
6:00 PM 96.8 °F - 51.8 °F 22% 29.65 in 5.0 mi NNW 13.8 mph - N/A   Unknown
6:30 PM 96.8 °F 94.4 °F 53.6 °F 23% 29.65 in 5.0 mi North 10.4 mph - N/A   Unknown
7:00 PM 95.0 °F - 51.8 °F 23% 29.65 in 5.6 mi NNW 11.5 mph - N/A   Unknown
7:30 PM 95.0 °F 92.7 °F 53.6 °F 25% 29.68 in - NNW 10.4 mph - N/A   Clear
8:00 PM 93.2 °F 90.8 °F 53.6 °F 26% 29.68 in - NNW 11.5 mph - N/A   Clear
8:30 PM 95.0 °F 92.7 °F 53.6 °F 25% 29.68 in - NNW 15.0 mph - N/A   Clear
9:00 PM 94 °F - 54 °F 17% 29.71 in 6 mi NW 9.2 mph - -  
9:00 PM 95.0 °F 92.7 °F 53.6 °F 25% 29.71 in - NW 9.2 mph - N/A   Clear
10:00 PM 93.2 °F 91.9 °F 57.2 °F 30% 29.68 in - NW 10.4 mph - N/A   Clear
10:30 PM 91.4 °F 89.9 °F 57.2 °F 31% 29.71 in - NW 5.8 mph - N/A   Clear
11:00 PM 93.2 °F 91.9 °F 57.2 °F 30% 29.68 in - NW 8.1 mph - N/A   Clear
11:30 PM 93.2 °F 91.9 °F 57.2 °F 30% 29.68 in - NW 5.8 mph - N/A   Clear